Home   Weather   Jaén   Past weeks

Flag for Spain Past Weather in Jaén, Spain — Yesterday and Last 2 Weeks

Now
34 °F

Clear.


Feels Like: 34 °F
Forecast: 31 / 48 °F
Wind: No wind

Location: Granada / Aeropuerto

Current Time: Jan 19, 2017 at 3:43:04 am

Latest Report: Jan 19, 2017 at 3:00 am


Visibility: 10 mi

Pressure: 29.95 "Hg (27.91 "Hg at 565m altitude)

Humidity: 75%

Dew Point: 27 °F

Location of JaénLocation

Past Weather in Jaén — Graph

°F

Jaén Temperature Yesterday

Maximum temperature yesterday: 43 °F (at 5:00 pm)
Minimum temperature yesterday: 21 °F (at 7:30 am)
Average temperature yesterday: 34 °F

High & Low Weather Summary for the Past Weeks

 TemperatureHumidityPressure
High63 °F (Jan 9, 6:00 pm)100% (Jan 4, 2:30 am)30.42 "Hg (Jan 4, 2:30 am)
Low21 °F (Jan 18, 7:30 am)23% (Jan 18, 2:00 am)29.92 "Hg (Jan 18, 3:30 pm)
Average41 °F75%30.23 "Hg
* Reported Jan 4 2:00 am — Jan 19 2:30 am, Jaén, Weather by CustomWeather, © 2017

Note: Actual official high and low records may vary slightly from our data, if they occured in-between our weather recording intervals... More about our weather records

Advertising

Jaén Weather History for the Previous 24 Hours

Scroll right to see more
 ConditionsComfort  
Time TempWeatherWind HumidityBarometerVisibility
2:30 am
Thu, Jan 19
36 °FPassing clouds.9 mph70%29.95 "HgN/A
2:00 am36 °FPassing clouds.5 mph70%29.95 "HgN/A
1:30 am34 °FOvercast.1 mph75%29.95 "HgN/A
1:00 am36 °FPassing clouds.5 mph65%29.98 "HgN/A
12:30 am34 °FClear.No wind75%29.98 "Hg10 mi
12:00 am34 °FPassing clouds.3 mph75%29.98 "HgN/A
11:30 pm
Wed, Jan 18
36 °FPassing clouds.6 mph70%29.98 "HgN/A
11:00 pm36 °FPassing clouds.9 mph70%29.98 "HgN/A
10:30 pm36 °FPassing clouds.12 mph70%29.95 "HgN/A
10:00 pm36 °FPassing clouds.13 mph70%29.95 "HgN/A
9:30 pm36 °FPassing clouds.13 mph70%29.95 "HgN/A
9:00 pm36 °FPassing clouds.14 mph70%29.95 "HgN/A
8:30 pm36 °FPassing clouds.14 mph65%29.95 "HgN/A
8:00 pm36 °FPassing clouds.16 mph65%29.92 "HgN/A
7:30 pm37 °FPassing clouds.9 mph52%29.95 "HgN/A
7:00 pm37 °FPassing clouds.5 mph52%29.95 "HgN/A
6:30 pm37 °FPassing clouds.3 mph45%29.95 "HgN/A
6:00 pm41 °FPassing clouds.9 mph36%29.92 "HgN/A
5:30 pm41 °FScattered clouds.5 mph33%29.95 "HgN/A
5:00 pm43 °FScattered clouds.7 mph31%29.92 "HgN/A
4:30 pm41 °FScattered clouds.7 mph31%29.92 "HgN/A
4:00 pm41 °FScattered clouds.14 mph31%29.92 "HgN/A
3:30 pm39 °FScattered clouds.5 mph33%29.92 "HgN/A
3:00 pm39 °FPartly sunny.5 mph33%29.95 "HgN/A
2:30 pm37 °FPartly sunny.1 mph28%29.95 "HgN/A
2:00 pm37 °FBroken clouds.1 mph30%29.95 "HgN/A
1:30 pm37 °FScattered clouds.No wind28%29.95 "HgN/A
1:00 pm36 °FScattered clouds.1 mph30%29.98 "HgN/A
12:30 pm34 °FScattered clouds.5 mph32%29.98 "HgN/A
12:00 pm34 °FScattered clouds.1 mph32%30.01 "HgN/A
11:30 am34 °FScattered clouds.2 mph32%30.01 "HgN/A
11:00 am32 °FScattered clouds.1 mph32%30.01 "HgN/A
10:30 am30 °FPassing clouds.No wind37%30.01 "HgN/A
10:00 am30 °FSunny.1 mph37%30.01 "Hg10 mi
9:30 am27 °FSunny.1 mph54%30.01 "Hg10 mi
9:00 am23 °FSunny.1 mph58%30.01 "Hg10 mi
8:30 am23 °FSunny.1 mph58%30.01 "Hg10 mi
8:00 am23 °FPassing clouds.5 mph54%30.01 "HgN/A
7:30 am21 °FClear.5 mph63%30.01 "Hg10 mi
7:00 am27 °FClear.1 mph43%30.01 "Hg10 mi
6:30 am28 °FPassing clouds.10 mph34%30.01 "HgN/A
6:00 am27 °FClear.1 mph46%30.01 "Hg10 mi
5:30 am30 °FChilly.7 mph31%30.01 "HgN/A
5:00 am30 °FChilly.7 mph29%30.04 "HgN/A
4:30 am32 °FChilly.5 mph27%30.04 "HgN/A
4:00 am32 °FChilly.5 mph27%30.04 "HgN/A
3:30 am34 °FChilly.5 mph25%30.04 "HgN/A
3:00 am34 °FChilly.14 mph23%30.04 "HgN/A
Weather by CustomWeather, © 2017

See weather overviewHow to use our weather pages